Theta_e
323 325 328 328 330 331 333 328 332 335 339 334 337 338 338 340 342 344 344 345 346 345 345 346 346 345 346 347 341 335 334 336
323 324 325 327 328 329 329 337 335 333 334 333 339 339 341 341 342 343 345 346 346 346 345 346 346 345 344 345 339 329 331 331
322 324 324 325 326 327 330 331 335 334 333 335 340 344 341 341 340 342 344 345 346 348 345 345 346 347 346 345 343 336 328 328
325 324 323 325 327 329 330 333 329 331 332 332 334 337 337 338 338 340 344 342 347 348 347 345 346 348 348 348 346 341 330 327
325 325 324 324 325 327 328 330 336 331 331 333 332 333 333 335 339 339 341 344 346 347 348 348 346 347 348 348 347 346 346 338
329 328 326 324 324 325 326 329 329 330 330 332 334 337 338 337 337 339 339 341 344 346 344 342 342 344 345 347 349 349 348 347
330 331 327 326 324 325 327 329 331 329 331 333 339 340 340 337 341 339 340 341 341 339 339 340 341 342 343 345 347 349 349 348
326 328 327 326 326 325 326 326 328 329 332 332 335 335 337 338 341 340 339 338 337 337 338 338 339 340 341 343 344 346 347 347
332 326 326 326 327 326 327 328 328 330 331 335 333 335 336 338 340 341 338 337 337 338 338 339 339 340 341 341 342 343 343 344
333 327 326 326 326 327 327 328 329 329 332 336 336 334 336 336 339 340 339 338 338 337 338 338 338 338 338 338 338 339 340 342
331 330 330 328 331 326 326 327 329 330 333 333 331 334 335 331 333 334 335 337 337 338 338 338 336 333 333 332 333 335 337 340
334 334 330 336 334 332 334 332 335 336 337 336 333 335 339 331 332 333 334 334 336 337 333 329 328 327 328 329 330 331 334 340
340 338 332 333 331 332 335 335 334 334 334 334 337 337 334 334 334 334 335 338 337 333 331 330 330 331 332 332 331 333 337 339
339 340 338 328 332 337 336 333 333 334 334 334 334 334 335 335 331 329 329 328 328 329 329 329 330 330 330 333 334 336 337 343
336 336 328 325 327 329 333 332 333 334 334 334 337 338 336 334 332 332 332 331 332 331 331 330 329 328 327 328 330 332 339 346
334 331 327 326 325 325 326 328 330 332 332 331 333 335 338 337 336 334 334 333 330 328 329 331 329 329 330 331 339 341 344 346
331 327 325 324 324 325 325 324 324 324 325 325 328 329 335 337 338 337 335 333 330 327 326 329 332 336 338 342 345 345 343 341
331 327 328 325 322 320 320 320 322 321 321 321 322 322 323 323 323 325 329 335 335 333 331 331 331 335 338 340 342 341 340 338
324 323 321 320 319 319 319 319 318 318 318 318 319 319 320 320 321 321 322 323 325 336 333 333 333 333 336 338 339 338 336 335
Wind_Speed
12 8 17 9 13 15 14 2 6 6 5 10 14 13 12 21 21 30 36 40 41 41 42 41 39 37 39 38 38 38 38 35
10 13 8 12 13 11 7 18 17 9 5 7 6 11 12 12 25 32 35 38 40 43 46 43 40 38 38 39 40 41 41 39
6 16 22 9 8 2 6 7 14 15 13 8 13 13 12 15 26 28 32 39 42 42 48 45 43 43 43 40 40 41 43 43
21 5 9 19 19 18 12 12 5 9 13 4 14 14 13 16 16 21 29 38 35 35 39 44 47 45 47 44 43 42 45 46
11 16 15 10 19 20 15 11 17 15 13 3 6 11 20 17 14 14 22 25 30 30 33 36 41 47 48 48 47 47 46 48
15 19 16 16 17 17 20 16 15 16 18 11 11 13 17 18 22 15 19 27 29 29 33 34 35 39 44 48 47 43 47 50
24 26 27 25 24 20 20 25 21 19 19 18 15 16 21 25 15 14 19 24 31 33 32 33 34 36 37 39 42 42 46 50
16 26 23 28 27 23 23 24 19 21 13 13 16 16 13 20 18 20 24 29 32 31 32 34 32 32 31 31 33 35 39 42
9 12 17 22 25 24 21 22 21 20 16 10 11 12 20 23 22 26 29 30 31 34 35 30 28 26 25 23 21 25 28 30
8 4 10 17 22 25 24 20 16 14 12 13 16 23 10 17 21 23 23 26 30 28 26 22 17 13 11 11 10 12 17 20
4 5 10 10 5 18 22 23 18 17 15 11 10 12 4 9 17 18 21 21 17 16 15 10 12 11 8 4 3 6 11 14
2 9 6 4 6 7 3 15 11 11 12 8 9 11 4 2 6 9 8 11 17 20 23 21 18 15 11 7 4 0 4 7
8 9 6 7 17 6 11 6 9 11 9 13 5 4 12 16 22 18 21 21 26 24 21 19 16 11 9 7 6 9 11 11
3 6 6 26 14 5 5 9 20 27 30 30 26 25 23 26 26 34 34 28 23 23 18 14 10 7 3 7 11 14 13 16
9 3 16 16 11 3 12 19 18 29 32 33 27 22 24 24 23 26 24 25 19 15 12 7 5 4 4 7 11 13 12 16
6 5 9 9 13 17 18 18 16 20 22 30 27 24 22 22 20 20 18 20 17 13 11 9 8 6 8 9 13 10 12 15
4 12 7 9 10 12 18 20 26 27 26 27 32 26 24 25 24 23 21 20 17 14 12 12 11 8 6 1 5 6 11 15
7 9 5 7 13 21 27 22 20 28 27 27 29 25 25 26 23 20 17 15 13 10 9 9 9 9 8 7 6 11 16 17
2 19 21 13 12 17 25 21 22 25 25 22 21 20 22 21 17 13 12 11 10 7 5 5 7 7 7 6 10 15 8 7
Wind_Direction
205 189 186 180 215 228 233 61 232 193 243 274 262 248 223 221 211 212 213 212 214 216 218 219 220 216 217 218 218 221 225 226
178 207 186 207 176 199 217 227 235 216 238 240 248 252 231 207 213 219 212 211 212 214 217 218 219 217 219 220 221 220 224 226
218 217 215 191 199 220 244 235 234 238 238 214 236 247 242 229 224 220 209 208 210 209 217 218 220 220 221 222 224 225 226 227
236 233 255 232 219 209 222 202 230 252 230 195 228 251 248 246 235 227 213 214 208 207 213 216 221 224 225 226 226 228 229 230
241 240 232 238 227 223 233 248 218 231 232 224 249 255 249 257 252 228 211 202 203 204 209 214 219 224 228 230 230 232 231 235
233 234 233 230 239 223 220 229 226 229 242 228 242 241 249 239 249 228 207 204 203 202 215 223 225 226 230 233 233 232 235 238
231 229 216 220 226 219 219 231 232 232 222 228 228 233 236 237 238 210 201 200 206 210 218 224 227 231 234 236 238 237 240 242
249 240 234 219 218 226 220 223 229 239 225 226 235 237 248 225 206 205 207 208 209 214 220 224 228 235 237 241 240 243 247 252
285 241 230 238 221 220 224 223 210 224 226 216 225 232 235 229 208 209 208 209 209 214 221 223 228 233 241 251 252 251 255 258
294 227 215 238 233 225 216 219 217 247 250 222 229 231 237 230 216 221 221 218 219 218 217 224 228 231 228 234 247 260 266 265
315 282 282 230 195 219 219 237 231 232 236 246 225 177 199 222 220 223 229 231 235 231 219 197 165 151 157 163 249 266 268 266
340 288 269 46 339 346 297 227 186 212 223 212 169 202 145 139 179 184 188 180 174 159 152 147 142 139 134 122 123 268 261 258
315 266 270 7 329 271 186 200 159 181 154 142 154 87 102 109 100 117 123 132 135 136 139 137 133 136 149 172 219 249 247 233
305 251 248 355 321 258 50 104 131 110 110 109 108 101 98 100 104 103 104 104 101 109 110 116 126 145 193 245 261 261 238 229
199 274 323 339 291 5 107 94 90 104 108 110 101 95 97 92 93 93 94 96 89 83 82 70 59 32 340 293 269 261 237 215
131 99 288 4 54 70 79 78 78 88 96 101 95 98 86 86 83 89 89 89 86 76 62 50 42 2 333 318 271 242 220 205
95 139 157 72 68 73 83 83 82 79 78 80 95 83 90 86 83 83 85 82 81 72 61 67 67 65 65 165 222 197 192 187
165 135 112 136 122 96 83 74 75 84 79 74 72 82 79 76 71 66 66 69 65 68 70 73 65 73 91 111 157 187 173 171
32 130 108 117 93 87 92 86 81 76 71 62 67 65 61 59 56 56 55 54 54 53 59 79 93 83 99 138 170 180 177 219